Regional Weather Roundup
Issued by NWS

Home | Current Version | Previous Version | Text Only | Print | Product List | Glossary Off
Versions: 1 2 3 4 5 6 7 8 9 10 11 12 13 14 15 16 17 18 19 20 21 22 23 24 25 26 27 28 29 30 31 32 33 34 35 36 37 38 39 40 41 42 43 44 45 46 47 48 49 50

000
ASUS43 KBIS 301820
RWRND

NORTH DAKOTA REGIONAL WEATHER ROUNDUP
NATIONAL WEATHER SERVICE BISMARCK ND
100 PM CDT WED JUL 30 2014

NOTE: "FAIR" INDICATES FEW OR NO CLOUDS BELOW 12,000 FEET WITH NO
SIGNIFICANT WEATHER AND/OR OBSTRUCTIONS TO VISIBILITY.


NDZ001>003-009>011-017-301900-
NORTHWEST NORTH DAKOTA

CITY           SKY/WX    TMP DP  RH WIND       PRES   REMARKS
WILLISTON      SUNNY     81  50  33 N13       30.18F
6HR MIN TEMP:  54; 6HR MAX TEMP:  82;

MINOT          FAIR      77  57  50 CALM      30.15F
MINOT AFB      FAIR      75  58  55 VRB3      30.14F
$$

NDZ018>021-031>035-040>046-301900-
SOUTHWEST NORTH DAKOTA

CITY           SKY/WX    TMP DP  RH WIND       PRES   REMARKS
BISMARCK       MOSUNNY   79  56  45 N7        30.15F
6HR MIN TEMP:  54; 6HR MAX TEMP:  81;

DICKINSON      MOSUNNY   78  53  41 NW6       30.17F
GARRISON         N/A     76  60  57 SW5       30.16F
6HR MIN TEMP:  54; 6HR MAX TEMP:  77;

HETTINGER ARPT SUNNY     79  55  43 N9        30.19F
$$

NDZ004>008-012>016-024-026-027-054-301900-
NORTHEAST NORTH DAKOTA

CITY           SKY/WX    TMP DP  RH WIND       PRES   REMARKS
GRAND FORKS    FAIR      79  57  46 N7        30.09F
GRND FRKS AFB  FAIR      78  57  49 N10       30.11F
DEVILS LAKE    FAIR      75  54  46 NW5       30.12F
$$

NDZ022-023-025-028>030-036>039-047>053-301900-
SOUTHEAST NORTH DAKOTA

CITY           SKY/WX    TMP DP  RH WIND       PRES   REMARKS
FARGO          FAIR      78  52  40 W7        30.11F
6HR MIN TEMP:  55; 6HR MAX TEMP:  79;

JAMESTOWN      FAIR      76  51  41 N6        30.14F
$$




USA.gov is the U.S. government's official web portal to all federal, state and local government web resources and services.